Location: Belmont
(13.0833°N, 59.6000°W)
Time: 03:05:23
(UTC+00:00)

Cosmos 2151 Rocket - Pass Details

Date: 17 September 2019
Orbit: 618 x 642 km, 82.5° (Epoch: 14 October)

Event Time Altitude Azimuth Distance (km) Brightness Sun altitude
Rises 22:35:30 0° 191° (SSW) 2,908 7.1 -9.9°
Reaches altitude 10° 22:37:46 10° 195° (SSW) 1,998 6.3 -10.4°
Maximum altitude 22:42:07 58° 275° (W) 727 4.3 -11.5°
Drops below altitude 10° 22:46:27 10° 354° (N) 1,985 6.3 -12.6°
Sets 22:48:42 0° 358° (N) 2,888 7.1 -13.1°
